Satellite-Ground Cal/Val Site Overpasses Predictions

Prediction of Satellite NPP Overpassing Cal/Val Site: Antarctic Dome C

Ground Cal/Val Site Location: Latitude: -75.10, Longitude: 123.35; Satellite-Ground Site NADIR distance within 100 km.

Table of predicted overpasses for the next 14.0 days since TLE Epoch: 6/14/2019
Interval Starting Time Ending Time Minimum Distance Time Minimum Distance (km)
1 06/15/2019 07:19:06 06/15/2019 07:19:26 06/15/2019 07:19:16 74.08
2 06/17/2019 15:01:22 06/17/2019 15:01:45 06/17/2019 15:01:34 60.04
3 06/18/2019 14:42:31 06/18/2019 14:42:57 06/18/2019 14:42:44 49.13
4 06/19/2019 07:44:13 06/19/2019 07:44:34 06/19/2019 07:44:23 71.21
5 06/20/2019 07:25:21 06/20/2019 07:25:49 06/20/2019 07:25:35 36.63
6 06/22/2019 15:07:50 06/22/2019 15:07:55 06/22/2019 15:07:53 97.90
7 06/23/2019 14:48:48 06/23/2019 14:49:17 06/23/2019 14:49:03 13.57
8 06/25/2019 07:31:38 06/25/2019 07:32:07 06/25/2019 07:31:53 2.05


NCC Satellite Cal/Val Overpasses Prediction Service
